| time (UTC) | temp C | wind direction | speed KPH | gust KPH | rain 1hr cm | rain 24hr cm | rain mn cm | humidity % | barometer mb |
| 20260507060012 | 5 | 116 | 1.6 | 8.0 | 0.00 | 0.00 | 0.00 | 98 | 946.8 |
| 20260507054514 | 5 | 117 | 4.8 | 8.0 | 0.00 | 0.00 | 0.00 | 99 | 946.8 |
| 20260507053011 | 5 | 119 | 1.6 | 8.0 | 0.00 | 0.00 | 0.00 | 99 | 946.7 |
| 20260507051508 | 5 | 74 | 0.0 | 4.8 | 0.00 | 0.00 | 0.00 | 98 | 946.8 |
| 20260507050022 | 5 | 111 | 3.2 | 4.8 | 0.00 | 0.00 | 0.00 | 98 | 946.8 |
| 20260507044506 | 5 | 97 | 1.6 | 3.2 | 0.00 | 0.00 | 0.00 | 98 | 946.9 |
| 20260507043005 | 5 | 298 | 0.0 | 3.2 | 0.00 | 0.00 | 0.00 | 98 | 947.0 |
| 20260507041504 | 5 | 258 | 0.0 | 4.8 | 0.00 | 0.00 | 0.00 | 99 | 947.0 |
| 20260507040006 | 5 | 167 | 0.0 | 3.2 | 0.00 | 0.00 | 0.00 | 98 | 946.9 |
| 20260507034501 | 5 | 131 | 3.2 | 8.0 | 0.00 | 0.00 | 0.00 | 98 | 947.2 |
| 20260507033001 | 5 | 117 | 1.6 | 4.8 | 0.00 | 0.00 | 0.00 | 98 | 947.4 |
| 20260507031609 | 5 | 54 | 0.0 | 3.2 | 0.00 | 0.00 | 0.00 | 98 | 947.0 |
| 20260507030101 | 5 | 68 | 1.6 | 3.2 | 0.00 | 0.00 | 0.00 | 97 | 947.1 |
| 20260507024558 | 5 | 41 | 1.6 | 4.8 | 0.00 | 0.00 | 0.00 | 98 | 947.1 |
| 20260507023106 | 6 | 55 | 1.6 | 4.8 | 0.00 | 0.00 | 0.00 | 98 | 947.1 |
| 20260507021557 | 5 | 85 | 1.6 | 4.8 | 0.00 | 0.00 | 0.00 | 98 | 947.4 |
| 20260507020057 | 5 | 94 | 1.6 | 4.8 | 0.00 | 0.00 | 0.00 | 98 | 947.4 |
| 20260507014603 | 5 | 117 | 1.6 | 3.2 | 0.00 | 0.00 | 0.00 | 98 | 947.5 |
| 20260507013054 | 5 | 150 | 1.6 | 3.2 | 0.00 | 0.00 | 0.00 | 98 | 947.5 |
| 20260507011553 | 5 | 122 | 0.0 | 4.8 | 0.00 | 0.00 | 0.00 | 98 | 947.6 |
| 20260507010051 | 5 | 109 | 1.6 | 4.8 | 0.00 | 0.00 | 0.00 | 97 | 947.7 |
| 20260507004551 | 5 | 28 | 0.0 | 4.8 | 0.00 | 0.00 | 0.00 | 97 | 947.7 |
| 20260507003051 | 5 | 65 | 1.6 | 4.8 | 0.00 | 0.00 | 0.00 | 97 | 947.9 |
| 20260507001546 | 5 | 92 | 1.6 | 4.8 | 0.00 | 0.00 | 0.00 | 97 | 948.0 |
| 20260507000045 | 5 | 103 | 1.6 | 3.2 | 0.00 | 0.00 | 0.00 | 97 | 948.0 |
| 20260506234544 | 5 | 62 | 0.0 | 4.8 | 0.00 | 0.00 | 0.00 | 97 | 948.1 |
| 20260506233046 | 6 | 15 | 3.2 | 6.4 | 0.00 | 0.00 | 0.00 | 97 | 948.1 |
| 20260506231542 | 6 | 93 | 0.0 | 1.6 | 0.00 | 0.00 | 0.00 | 97 | 948.2 |
| 20260506230038 | 6 | 69 | 0.0 | 3.2 | 0.00 | 0.00 | 0.00 | 97 | 948.2 |
| 20260506224538 | 6 | 96 | 1.6 | 4.8 | 0.00 | 0.00 | 0.00 | 96 | 948.2 |
| 20260506223036 | 7 | 343 | 4.8 | 8.0 | 0.00 | 0.00 | 0.00 | 97 | 948.3 |
| 20260506221534 | 6 | 36 | 4.8 | 8.0 | 0.00 | 0.00 | 0.00 | 96 | 948.3 |
| 20260506220033 | 7 | 71 | 1.6 | 6.4 | 0.00 | 0.00 | 0.00 | 96 | 948.4 |
| 20260506214532 | 7 | 27 | 3.2 | 6.4 | 0.00 | 0.00 | 0.00 | 96 | 948.5 |
| 20260506213031 | 7 | 360 | 3.2 | 6.4 | 0.00 | 0.00 | 0.00 | 96 | 948.5 |
| 20260506211533 | 7 | 360 | 3.2 | 8.0 | 0.00 | 0.00 | 0.00 | 95 | 948.5 |
| 20260506210031 | 7 | 79 | 1.6 | 4.8 | 0.00 | 0.00 | 0.00 | 95 | 948.6 |
| 20260506204528 | 7 | 66 | 1.6 | 3.2 | 0.00 | 0.00 | 0.00 | 94 | 948.5 |
| 20260506203027 | 7 | 99 | 1.6 | 3.2 | 0.00 | 0.00 | 0.00 | 93 | 948.5 |
| 20260506201527 | 7 | 5 | 0.0 | 4.8 | 0.00 | 0.00 | 0.00 | 93 | 948.4 |
| 20260506200026 | 8 | 360 | 1.6 | 4.8 | 0.00 | 0.00 | 0.00 | 92 | 948.2 |
| 20260506194526 | 8 | 116 | 1.6 | 3.2 | 0.00 | 0.00 | 0.00 | 91 | 948.0 |
| 20260506193025 | 9 | 69 | 0.0 | 3.2 | 0.00 | 0.00 | 0.00 | 90 | 948.0 |
| 20260506191525 | 10 | 55 | 1.6 | 6.4 | 0.00 | 0.00 | 0.00 | 89 | 947.8 |
| 20260506190024 | 10 | 26 | 6.4 | 9.7 | 0.00 | 0.00 | 0.00 | 88 | 947.8 |
| 20260506184524 | 10 | 5 | 1.6 | 12.9 | 0.00 | 0.00 | 0.00 | 88 | 947.7 |
| 20260506183023 | 10 | 61 | 4.8 | 14.5 | 0.00 | 0.00 | 0.00 | 87 | 947.6 |
| 20260506181523 | 11 | 75 | 8.0 | 16.1 | 0.00 | 0.00 | 0.00 | 85 | 947.4 |
| 20260506180023 | 11 | 24 | 3.2 | 11.3 | 0.00 | 0.00 | 0.00 | 87 | 947.4 |
| 20260506174521 | 11 | 335 | 11.3 | 17.7 | 0.00 | 0.00 | 0.00 | 86 | 947.3 |
| 20260506173022 | 11 | 360 | 6.4 | 16.1 | 0.00 | 0.00 | 0.00 | 87 | 947.5 |
| 20260506171522 | 10 | 18 | 6.4 | 19.3 | 0.00 | 0.00 | 0.00 | 87 | 947.6 |
| 20260506170022 | 10 | 49 | 11.3 | 17.7 | 0.00 | 0.00 | 0.00 | 88 | 947.7 |
| 20260506164520 | 10 | 9 | 11.3 | 17.7 | 0.00 | 0.00 | 0.00 | 89 | 948.0 |
| 20260506163038 | 10 | 26 | 11.3 | 22.5 | 0.00 | 0.00 | 0.00 | 88 | 947.9 |
| 20260506161520 | 11 | 41 | 9.7 | 16.1 | 0.00 | 0.00 | 0.00 | 87 | 947.8 |
| 20260506160022 | 11 | 316 | 9.7 | 17.7 | 0.00 | 0.00 | 0.00 | 86 | 947.9 |
| 20260506154518 | 11 | 22 | 9.7 | 16.1 | 0.00 | 0.00 | 0.00 | 88 | 948.0 |
| 20260506153017 | 10 | 18 | 14.5 | 20.9 | 0.00 | 0.00 | 0.00 | 89 | 947.9 |
| 20260506151517 | 10 | 56 | 12.9 | 19.3 | 0.00 | 0.00 | 0.00 | 90 | 948.1 |
| 20260506150016 | 10 | 37 | 6.4 | 17.7 | 0.00 | 0.00 | 0.00 | 91 | 948.1 |
| 20260506144515 | 10 | 333 | 6.4 | 14.5 | 0.00 | 0.00 | 0.00 | 91 | 948.3 |
| 20260506143016 | 10 | 55 | 6.4 | 17.7 | 0.00 | 0.00 | 0.00 | 91 | 948.4 |
| 20260506141515 | 10 | 16 | 14.5 | 22.5 | 0.00 | 0.00 | 0.00 | 91 | 948.5 |
| 20260506140014 | 10 | 340 | 12.9 | 27.4 | 0.00 | 0.00 | 0.00 | 88 | 948.5 |
| 20260506134513 | 11 | 347 | 11.3 | 20.9 | 0.00 | 0.00 | 0.00 | 82 | 948.4 |
| 20260506133012 | 12 | 63 | 4.8 | 9.7 | 0.00 | 0.00 | 0.00 | 79 | 948.3 |
| 20260506131514 | 12 | 290 | 3.2 | 11.3 | 0.00 | 0.00 | 0.00 | 81 | 948.2 |
| 20260506130010 | 11 | 25 | 1.6 | 8.0 | 0.00 | 0.00 | 0.00 | 88 | 948.3 |
| 20260506124509 | 10 | 13 | 3.2 | 9.7 | 0.00 | 0.00 | 0.00 | 88 | 948.4 |
| 20260506123010 | 10 | 11 | 4.8 | 14.5 | 0.00 | 0.00 | 0.00 | 87 | 948.4 |
| 20260506121508 | 11 | 9 | 6.4 | 16.1 | 0.00 | 0.00 | 0.00 | 84 | 948.3 |
| 20260506120007 | 11 | 360 | 4.8 | 16.1 | 0.00 | 0.00 | 0.00 | 81 | 948.2 |
| 20260506114509 | 11 | 338 | 6.4 | 14.5 | 0.00 | 0.00 | 0.00 | 80 | 948.1 |
| 20260506113007 | 12 | 292 | 8.0 | 14.5 | 0.00 | 0.00 | 0.00 | 80 | 948.1 |
| 20260506111507 | 12 | 346 | 8.0 | 11.3 | 0.00 | 0.00 | 0.00 | 80 | 948.3 |
| 20260506110003 | 11 | 333 | 6.4 | 14.5 | 0.00 | 0.00 | 0.00 | 83 | 948.3 |
| 20260506104603 | 11 | 13 | 6.4 | 12.9 | 0.00 | 0.00 | 0.00 | 83 | 948.3 |
| 20260506103059 | 11 | 351 | 4.8 | 12.9 | 0.00 | 0.00 | 0.00 | 82 | 948.3 |
| 20260506101605 | 11 | 46 | 3.2 | 8.0 | 0.00 | 0.00 | 0.00 | 81 | 948.3 |
| 20260506100057 | 11 | 312 | 1.6 | 8.0 | 0.00 | 0.00 | 0.00 | 79 | 948.3 |
| 20260506094621 | 11 | 298 | 3.2 | 9.7 | 0.00 | 0.00 | 0.00 | 83 | 948.2 |
| 20260506093054 | 10 | 17 | 1.6 | 4.8 | 0.00 | 0.00 | 0.00 | 85 | 948.3 |
| 20260506091550 | 10 | 132 | 4.8 | 8.0 | 0.00 | 0.00 | 0.00 | 86 | 948.1 |
| 20260506090049 | 10 | 111 | 1.6 | 8.0 | 0.00 | 0.00 | 0.00 | 86 | 948.2 |
| 20260506084548 | 10 | 104 | 3.2 | 11.3 | 0.00 | 0.00 | 0.00 | 89 | 948.1 |
| 20260506083042 | 9 | 102 | 4.8 | 11.3 | 0.00 | 0.00 | 0.00 | 93 | 948.1 |
| 20260506081539 | 8 | 115 | 3.2 | 6.4 | 0.00 | 0.00 | 0.00 | 94 | 948.2 |
| 20260506073041 | 7 | 138 | 8.0 | 12.9 | 0.00 | 0.00 | 0.00 | 94 | 948.0 |
| 20260506071534 | 7 | 188 | 4.8 | 11.3 | 0.00 | 0.00 | 0.00 | 96 | 947.8 |
| 20260506061532 | 6 | 172 | 3.2 | 6.4 | 0.00 | 0.00 | 0.00 | 97 | 947.7 |